When you browse on this site, cookies collect data to enhance your experience and personalize the content and advertising you see.
Visit our Privacy Policy to learn more. By continuing to use the site, you agree to this use of cookies and data.
  • In Sweden
  • List of Countries
  • For 7 days
  • Water Temperature
  • Weather Map
  • Weather Widgets
  • user-avatar
    Login

    Hourly Weather Galechnik

    Today, 21 September, Saturday

    Time Temperature Precipitation Wind Pressure Humidity
    00:00 +5°C° 0 mm 1 mps 735 mmHg 85%
    01:00 +5°C° 0 mm 1 mps 735 mmHg 88%
    02:00 +4°C° 0 mm 1 mps 735 mmHg 90%
    03:00 +4°C° 0 mm 1 mps 735 mmHg 92%
    04:00 +3°C° 0 mm 1 mps 735 mmHg 94%
    05:00 +4°C° 0.2 mm 1 mps 734 mmHg 94%
    06:00 +3°C° 0.2 mm 2 mps 734 mmHg 93%
    07:00 +3°C° 0.2 mm 2 mps 733 mmHg 93%
    08:00 +3°C° 0.8 mm 3 mps 733 mmHg 92%
    09:00 +4°C° 0.8 mm 3 mps 732 mmHg 91%
    10:00 +4°C° 0 mm 4 mps 733 mmHg 91%
    11:00 +5°C° 0.2 mm 4 mps 732 mmHg 89%
    12:00 +6°C° 0.2 mm 4 mps 732 mmHg 86%
    13:00 +6°C° 0.2 mm 5 mps 731 mmHg 83%
    14:00 +7°C° 0.2 mm 5 mps 731 mmHg 81%
    15:00 +7°C° 0.2 mm 4 mps 731 mmHg 79%
    16:00 +7°C° 0.2 mm 4 mps 731 mmHg 77%
    17:00 +5°C° 0.1 mm 4 mps 731 mmHg 82%
    18:00 +4°C° 0.1 mm 3 mps 730 mmHg 88%
    19:00 +3°C° 0.1 mm 2 mps 730 mmHg 94%
    20:00 +2°C° 0 mm 2 mps 730 mmHg 94%
    21:00 +1°C° 0 mm 2 mps 730 mmHg 95%
    22:00 +1°C° 0 mm 1 mps 729 mmHg 96%
    23:00 +1°C° 0 mm 1 mps 729 mmHg 96%

    Tomorrow, 22 September, Sunday

    Time Temperature Precipitation Wind Pressure Humidity
    00:00 0°C° 0 mm 1 mps 729 mmHg 95%
    01:00 -1°C° 0 mm 0 mps 728 mmHg 95%
    02:00 -1°C° 0 mm 0 mps 728 mmHg 95%
    03:00 -1°C° 0 mm 0 mps 728 mmHg 94%
    04:00 -1°C° 0 mm 0 mps 728 mmHg 94%
    05:00 -1°C° 0 mm 0 mps 728 mmHg 94%
    06:00 +1°C° 0 mm 1 mps 727 mmHg 93%
    07:00 +2°C° 0 mm 1 mps 727 mmHg 93%
    08:00 +2°C° 0 mm 1 mps 727 mmHg 90%
    09:00 +3°C° 0 mm 1 mps 727 mmHg 88%
    10:00 +4°C° 0 mm 1 mps 727 mmHg 86%
    11:00 +5°C° 0.1 mm 1 mps 727 mmHg 78%
    12:00 +6°C° 0.1 mm 1 mps 726 mmHg 70%
    13:00 +6°C° 0.1 mm 2 mps 726 mmHg 62%
    14:00 +7°C° 0 mm 1 mps 726 mmHg 60%
    15:00 +7°C° 0 mm 1 mps 726 mmHg 58%
    16:00 +8°C° 0 mm 1 mps 725 mmHg 56%
    17:00 +6°C° 0 mm 1 mps 725 mmHg 63%
    18:00 +4°C° 0 mm 1 mps 725 mmHg 70%
    19:00 +3°C° 0 mm 1 mps 725 mmHg 77%
    20:00 +2°C° 0 mm 1 mps 724 mmHg 78%
    21:00 +2°C° 0 mm 1 mps 724 mmHg 79%
    22:00 +2°C° 0 mm 1 mps 724 mmHg 80%
    23:00 +1°C° 0 mm 1 mps 724 mmHg 81%

    Day after tomorrow, 23 September, Monday

    Time Temperature Precipitation Wind Pressure Humidity
    00:00 +1°C° 0 mm 1 mps 723 mmHg 82%
    01:00 +1°C° 0 mm 1 mps 723 mmHg 83%
    02:00 +1°C° 0 mm 1 mps 723 mmHg 84%
    03:00 -1°C° 0 mm 2 mps 722 mmHg 84%
    04:00 -1°C° 0 mm 2 mps 722 mmHg 85%
    05:00 +1°C° 0.3 mm 2 mps 722 mmHg 87%
    06:00 0°C° 0.3 mm 3 mps 721 mmHg 90%
    07:00 -1°C° 0.3 mm 4 mps 721 mmHg 92%
    08:00 -1°C° 0.4 mm 4 mps 720 mmHg 90%
    09:00 0°C° 0.4 mm 5 mps 720 mmHg 87%
    10:00 0°C° 0.4 mm 5 mps 720 mmHg 85%
    11:00 +1°C° 0.1 mm 5 mps 720 mmHg 82%
    12:00 +1°C° 0.1 mm 5 mps 720 mmHg 80%
    13:00 +2°C° 0.1 mm 5 mps 720 mmHg 77%
    14:00 +2°C° 0 mm 5 mps 720 mmHg 74%
    15:00 +3°C° 0 mm 5 mps 720 mmHg 71%
    16:00 +3°C° 0 mm 5 mps 721 mmHg 68%
    17:00 +4°C° 0 mm 4 mps 721 mmHg 72%
    18:00 +3°C° 0 mm 3 mps 722 mmHg 75%
    19:00 +2°C° 0 mm 3 mps 723 mmHg 79%
    20:00 +1°C° 0 mm 3 mps 723 mmHg 81%
    21:00 +2°C° 0 mm 2 mps 724 mmHg 83%
    22:00 +1°C° 0 mm 2 mps 725 mmHg 85%
    23:00 -1°C° 0 mm 2 mps 725 mmHg 87%

    24 September, Tuesday

    Time Temperature Precipitation Wind Pressure Humidity
    00:00 -1°C° 0 mm 2 mps 726 mmHg 88%
    01:00 0°C° 0 mm 1 mps 726 mmHg 90%
    02:00 0°C° 0 mm 1 mps 727 mmHg 90%
    03:00 0°C° 0 mm 1 mps 727 mmHg 90%
    04:00 -1°C° 0 mm 1 mps 728 mmHg 91%
    05:00 0°C° 0 mm 1 mps 728 mmHg 88%
    06:00 0°C° 0 mm 1 mps 729 mmHg 86%
    07:00 0°C° 0 mm 1 mps 729 mmHg 84%
    08:00 +2°C° 0 mm 1 mps 729 mmHg 78%
    09:00 +3°C° 0 mm 1 mps 730 mmHg 73%
    10:00 +3°C° 0 mm 2 mps 730 mmHg 68%
    11:00 +3°C° 0.1 mm 2 mps 731 mmHg 69%
    12:00 +3°C° 0.1 mm 3 mps 731 mmHg 70%
    13:00 +3°C° 0.1 mm 4 mps 731 mmHg 71%
    14:00 +3°C° 0.2 mm 4 mps 731 mmHg 71%
    15:00 +2°C° 0.2 mm 5 mps 731 mmHg 70%
    16:00 +1°C° 0.2 mm 5 mps 731 mmHg 70%
    17:00 +1°C° 0 mm 4 mps 731 mmHg 74%
    18:00 0°C° 0 mm 4 mps 732 mmHg 78%
    19:00 -1°C° 0 mm 4 mps 732 mmHg 82%
    20:00 -1°C° 0.2 mm 4 mps 732 mmHg 86%
    21:00 -1°C° 0.2 mm 4 mps 732 mmHg 91%
    22:00 -2°C° 0.2 mm 5 mps 732 mmHg 95%
    23:00 -2°C° 0.1 mm 4 mps 732 mmHg 95%

    25 September, Wednesday

    Time Temperature Precipitation Wind Pressure Humidity
    00:00 -2°C° 0.1 mm 4 mps 732 mmHg 94%
    01:00 -2°C° 0.1 mm 4 mps 732 mmHg 94%
    02:00 -2°C° 0 mm 4 mps 732 mmHg 95%
    03:00 -2°C° 0 mm 4 mps 732 mmHg 95%
    04:00 -2°C° 0 mm 4 mps 732 mmHg 96%
    05:00 -2°C° 0.1 mm 4 mps 732 mmHg 95%
    06:00 -2°C° 0.1 mm 4 mps 732 mmHg 95%
    07:00 -2°C° 0.1 mm 4 mps 732 mmHg 94%
    08:00 -2°C° 0.1 mm 4 mps 733 mmHg 93%
    09:00 -1°C° 0.1 mm 5 mps 733 mmHg 92%
    10:00 -1°C° 0.1 mm 5 mps 733 mmHg 91%
    11:00 -1°C° 0.1 mm 5 mps 733 mmHg 88%
    12:00 0°C° 0.1 mm 5 mps 734 mmHg 85%
    13:00 -1°C° 0.1 mm 6 mps 734 mmHg 82%
    14:00 +1°C° 0.1 mm 5 mps 734 mmHg 81%
    15:00 +1°C° 0.1 mm 5 mps 734 mmHg 79%
    16:00 +1°C° 0.1 mm 5 mps 734 mmHg 77%
    17:00 0°C° 0.1 mm 5 mps 734 mmHg 82%
    18:00 -1°C° 0.1 mm 4 mps 735 mmHg 86%
    19:00 -2°C° 0.1 mm 4 mps 735 mmHg 90%
    20:00 -2°C° 0 mm 4 mps 735 mmHg 90%
    21:00 -2°C° 0 mm 4 mps 735 mmHg 90%
    22:00 -2°C° 0 mm 4 mps 735 mmHg 90%
    23:00 -2°C° 0 mm 4 mps 735 mmHg 91%

    26 September, Thursday

    Time Temperature Precipitation Wind Pressure Humidity
    00:00 -2°C° 0 mm 4 mps 735 mmHg 92%
    01:00 -2°C° 0 mm 4 mps 735 mmHg 92%
    02:00 -2°C° 0 mm 4 mps 735 mmHg 91%
    03:00 -2°C° 0 mm 4 mps 735 mmHg 90%
    04:00 -2°C° 0 mm 4 mps 736 mmHg 88%
    05:00 -4°C° 0 mm 5 mps 736 mmHg 88%
    06:00 -4°C° 0 mm 5 mps 736 mmHg 87%
    07:00 -4°C° 0 mm 5 mps 736 mmHg 87%
    08:00 -2°C° 0 mm 5 mps 736 mmHg 85%
    09:00 -2°C° 0 mm 5 mps 736 mmHg 83%
    10:00 -2°C° 0 mm 5 mps 736 mmHg 81%
    11:00 -1°C° 0 mm 5 mps 737 mmHg 81%
    12:00 -1°C° 0 mm 5 mps 737 mmHg 80%
    13:00 -1°C° 0 mm 5 mps 737 mmHg 80%
    14:00 -1°C° 0 mm 5 mps 737 mmHg 79%
    15:00 -1°C° 0 mm 5 mps 737 mmHg 78%
    16:00 -1°C° 0 mm 5 mps 737 mmHg 77%
    17:00 -1°C° 0 mm 4 mps 738 mmHg 81%
    18:00 -2°C° 0 mm 4 mps 738 mmHg 84%
    19:00 -2°C° 0 mm 3 mps 738 mmHg 88%
    20:00 -2°C° 0 mm 3 mps 738 mmHg 90%
    21:00 -4°C° 0 mm 3 mps 738 mmHg 92%
    22:00 -4°C° 0 mm 3 mps 738 mmHg 94%
    23:00 -4°C° 0 mm 3 mps 738 mmHg 94%
    Show more